When you browse on this site, cookies collect data to enhance your experience and personalize the content and advertising you see.
Visit our Privacy Policy to learn more. By continuing to use the site, you agree to this use of cookies and data.
EN

Hourly Weather Zhiharevo

Today, 18 September, Friday

Time Temperature Precipitation Wind Pressure Humidity
00:00 +7°C° 0 mm 5 mps 738 mmHg 88%
01:00 +7°C° 0 mm 5 mps 737 mmHg 89%
02:00 +7°C° 0 mm 5 mps 738 mmHg 91%
03:00 +7°C° 0.1 mm 5 mps 737 mmHg 89%
04:00 +7°C° 0.1 mm 6 mps 737 mmHg 88%
05:00 +8°C° 0.1 mm 6 mps 737 mmHg 86%
06:00 +8°C° 0.2 mm 6 mps 737 mmHg 85%
07:00 +8°C° 0.2 mm 6 mps 737 mmHg 83%
08:00 +8°C° 0 mm 6 mps 737 mmHg 83%
09:00 +8°C° 0.2 mm 6 mps 737 mmHg 83%
10:00 +8°C° 0.2 mm 6 mps 737 mmHg 83%
11:00 +8°C° 0.2 mm 6 mps 738 mmHg 83%
12:00 +8°C° 0.3 mm 7 mps 738 mmHg 82%
13:00 +9°C° 0.3 mm 7 mps 738 mmHg 81%
14:00 +9°C° 0 mm 7 mps 738 mmHg 79%
15:00 +9°C° 0.1 mm 7 mps 738 mmHg 82%
16:00 +8°C° 0.1 mm 7 mps 738 mmHg 85%
17:00 +8°C° 0.1 mm 7 mps 739 mmHg 87%
18:00 +6°C° 0.1 mm 7 mps 739 mmHg 87%
19:00 +6°C° 0.1 mm 7 mps 740 mmHg 87%
20:00 +6°C° 0.1 mm 7 mps 740 mmHg 87%
21:00 +6°C° 0 mm 7 mps 741 mmHg 87%
22:00 +6°C° 0 mm 7 mps 741 mmHg 86%
23:00 +6°C° 0 mm 7 mps 741 mmHg 85%

Tomorrow, 19 September, Saturday

Time Temperature Precipitation Wind Pressure Humidity
00:00 +5°C° 0 mm 6 mps 741 mmHg 86%
01:00 +5°C° 0 mm 6 mps 741 mmHg 87%
02:00 +4°C° 0 mm 6 mps 742 mmHg 87%
03:00 +3°C° 0 mm 5 mps 742 mmHg 89%
04:00 +3°C° 0 mm 5 mps 742 mmHg 90%
05:00 +2°C° 0 mm 5 mps 742 mmHg 92%
06:00 +3°C° 0 mm 5 mps 743 mmHg 88%
07:00 +5°C° 0 mm 5 mps 743 mmHg 85%
08:00 +6°C° 0 mm 5 mps 743 mmHg 82%
09:00 +8°C° 0 mm 5 mps 743 mmHg 77%
10:00 +10°C° 0 mm 6 mps 743 mmHg 72%
11:00 +13°C° 0 mm 6 mps 743 mmHg 67%
12:00 +14°C° 0 mm 6 mps 743 mmHg 66%
13:00 +15°C° 0 mm 6 mps 742 mmHg 65%
14:00 +16°C° 0 mm 7 mps 742 mmHg 63%
15:00 +15°C° 0 mm 6 mps 742 mmHg 68%
16:00 +14°C° 0 mm 5 mps 742 mmHg 72%
17:00 +13°C° 0 mm 5 mps 742 mmHg 76%
18:00 +12°C° 0 mm 4 mps 742 mmHg 80%
19:00 +11°C° 0 mm 4 mps 742 mmHg 85%
20:00 +10°C° 0 mm 4 mps 742 mmHg 89%
21:00 +10°C° 0 mm 3 mps 742 mmHg 89%
22:00 +10°C° 0 mm 3 mps 743 mmHg 88%
23:00 +10°C° 0 mm 3 mps 743 mmHg 87%

Day after tomorrow, 20 September, Sunday

Time Temperature Precipitation Wind Pressure Humidity
00:00 +9°C° 0 mm 3 mps 743 mmHg 89%
01:00 +8°C° 0 mm 3 mps 743 mmHg 90%
02:00 +6°C° 0 mm 4 mps 743 mmHg 91%
03:00 +7°C° 0 mm 3 mps 743 mmHg 92%
04:00 +5°C° 0 mm 3 mps 744 mmHg 93%
05:00 +4°C° 0 mm 3 mps 744 mmHg 94%
06:00 +6°C° 0 mm 4 mps 744 mmHg 87%
07:00 +7°C° 0 mm 4 mps 745 mmHg 80%
08:00 +8°C° 0 mm 4 mps 745 mmHg 73%
09:00 +10°C° 0 mm 4 mps 746 mmHg 67%
10:00 +11°C° 0 mm 4 mps 746 mmHg 61%
11:00 +12°C° 0 mm 4 mps 746 mmHg 54%
12:00 +13°C° 0 mm 4 mps 746 mmHg 53%
13:00 +13°C° 0 mm 4 mps 746 mmHg 53%
14:00 +14°C° 0 mm 4 mps 746 mmHg 52%
15:00 +13°C° 0 mm 4 mps 746 mmHg 57%
16:00 +12°C° 0 mm 3 mps 746 mmHg 62%
17:00 +12°C° 0 mm 2 mps 746 mmHg 67%
18:00 +10°C° 0 mm 3 mps 746 mmHg 72%
19:00 +9°C° 0 mm 3 mps 747 mmHg 76%
20:00 +8°C° 0 mm 3 mps 747 mmHg 81%
21:00 +7°C° 0 mm 2 mps 747 mmHg 84%
22:00 +7°C° 0 mm 2 mps 747 mmHg 87%
23:00 +6°C° 0 mm 2 mps 747 mmHg 89%

21 September, Monday

Time Temperature Precipitation Wind Pressure Humidity
00:00 +6°C° 0 mm 2 mps 747 mmHg 90%
01:00 +6°C° 0 mm 2 mps 747 mmHg 91%
02:00 +6°C° 0 mm 2 mps 747 mmHg 92%
03:00 +5°C° 0 mm 2 mps 747 mmHg 93%
04:00 +5°C° 0 mm 2 mps 747 mmHg 93%
05:00 +5°C° 0 mm 2 mps 747 mmHg 93%
06:00 +5°C° 0 mm 3 mps 747 mmHg 87%
07:00 +8°C° 0 mm 3 mps 747 mmHg 82%
08:00 +8°C° 0 mm 4 mps 747 mmHg 76%
09:00 +10°C° 0 mm 4 mps 747 mmHg 70%
10:00 +12°C° 0 mm 4 mps 747 mmHg 65%
11:00 +13°C° 0 mm 5 mps 747 mmHg 60%
12:00 +14°C° 0 mm 5 mps 747 mmHg 59%
13:00 +15°C° 0 mm 5 mps 746 mmHg 57%
14:00 +15°C° 0 mm 5 mps 746 mmHg 56%
15:00 +14°C° 0 mm 4 mps 746 mmHg 61%
16:00 +13°C° 0 mm 3 mps 746 mmHg 66%
17:00 +12°C° 0 mm 3 mps 745 mmHg 71%
18:00 +11°C° 0 mm 3 mps 746 mmHg 76%
19:00 +10°C° 0 mm 3 mps 746 mmHg 80%
20:00 +9°C° 0 mm 3 mps 746 mmHg 84%
21:00 +9°C° 0 mm 2 mps 746 mmHg 86%
22:00 +9°C° 0 mm 2 mps 746 mmHg 87%
23:00 +8°C° 0 mm 2 mps 746 mmHg 89%

22 September, Tuesday

Time Temperature Precipitation Wind Pressure Humidity
00:00 +8°C° 0 mm 2 mps 746 mmHg 89%
01:00 +8°C° 0 mm 2 mps 746 mmHg 89%
02:00 +8°C° 0 mm 2 mps 746 mmHg 89%
03:00 +8°C° 0 mm 2 mps 746 mmHg 89%
04:00 +7°C° 0 mm 2 mps 746 mmHg 89%
05:00 +7°C° 0 mm 2 mps 747 mmHg 90%
06:00 +9°C° 0 mm 2 mps 747 mmHg 84%
07:00 +10°C° 0 mm 2 mps 747 mmHg 78%
08:00 +13°C° 0 mm 2 mps 747 mmHg 73%
09:00 +14°C° 0 mm 2 mps 747 mmHg 68%
10:00 +16°C° 0 mm 2 mps 748 mmHg 63%
11:00 +18°C° 0 mm 2 mps 748 mmHg 58%
12:00 +18°C° 0 mm 2 mps 748 mmHg 56%
13:00 +19°C° 0 mm 3 mps 747 mmHg 53%
14:00 +20°C° 0 mm 3 mps 747 mmHg 51%
15:00 +18°C° 0 mm 2 mps 747 mmHg 55%
16:00 +17°C° 0 mm 2 mps 747 mmHg 60%
17:00 +16°C° 0 mm 2 mps 746 mmHg 64%
18:00 +15°C° 0 mm 2 mps 746 mmHg 66%
19:00 +14°C° 0 mm 2 mps 746 mmHg 67%
20:00 +13°C° 0 mm 2 mps 746 mmHg 69%
21:00 +13°C° 0 mm 2 mps 746 mmHg 69%
22:00 +11°C° 0 mm 3 mps 746 mmHg 68%
23:00 +11°C° 0 mm 3 mps 746 mmHg 68%

23 September, Wednesday

Time Temperature Precipitation Wind Pressure Humidity
00:00 +10°C° 0 mm 3 mps 746 mmHg 67%
01:00 +10°C° 0 mm 3 mps 746 mmHg 67%
02:00 +10°C° 0 mm 3 mps 746 mmHg 66%
03:00 +9°C° 0 mm 3 mps 746 mmHg 65%
04:00 +9°C° 0 mm 3 mps 746 mmHg 65%
05:00 +9°C° 0 mm 3 mps 746 mmHg 64%
06:00 +10°C° 0 mm 3 mps 746 mmHg 61%
07:00 +12°C° 0 mm 4 mps 746 mmHg 58%
08:00 +13°C° 0 mm 4 mps 746 mmHg 55%
09:00 +15°C° 0 mm 4 mps 746 mmHg 52%
10:00 +18°C° 0 mm 4 mps 746 mmHg 48%
11:00 +20°C° 0 mm 4 mps 745 mmHg 44%
12:00 +20°C° 0 mm 4 mps 745 mmHg 42%
13:00 +21°C° 0 mm 4 mps 745 mmHg 41%
14:00 +21°C° 0 mm 4 mps 745 mmHg 39%
15:00 +20°C° 0 mm 4 mps 744 mmHg 44%
16:00 +19°C° 0 mm 3 mps 744 mmHg 50%
17:00 +17°C° 0 mm 3 mps 743 mmHg 55%
18:00 +16°C° 0 mm 3 mps 743 mmHg 55%
19:00 +14°C° 0 mm 3 mps 743 mmHg 55%
20:00 +13°C° 0 mm 3 mps 743 mmHg 56%
21:00 +13°C° 0 mm 3 mps 743 mmHg 55%
22:00 +12°C° 0 mm 3 mps 743 mmHg 55%
23:00 +12°C° 0 mm 3 mps 743 mmHg 54%
Show more